Sisseton, SD

4:10 AM CDT on August 23, 2017 (GMT -0500)
Sisseton

Weather History for K8D3 - July, 2012

Change the Weather History Date:

Monday, July 2, 2012

  Actual Average Record
Temperature  
Mean Temperature 84 °F 70 °F  
Max Temperature 99 °F 81 °F 100 °F (1949)
Min Temperature 69 °F 59 °F 44 °F (1994)
Degree Days  
Heating Degree Days 0 1  
Month to date heating degree days 0 2  
Since 1 June heating degree days 27 64  
Since 1 July heating degree days 0 2  
Cooling Degree Days 19 6  
Month to date cooling degree days 31 11  
Year to date cooling degree days 250 128  
Since 1 June cooling degree days 192 105  
Growing Degree Days 34 (Base 50)    
Moisture  
Dew Point 71 °F    
Average Humidity 66    
Maximum Humidity 97    
Minimum Humidity 35    
Precipitation  
Precipitation 0.00 in 0.11 in 3.65 in (1903)
Month to date precipitation 0.00 0.22  
Year to date precipitation 10.90 10.94  
Sea Level Pressure  
Sea Level Pressure 29.65 in    
Wind  
Wind Speed 9 mph (South)    
Max Wind Speed 23 mph    
Max Gust Speed 32 mph    
T = Trace of Precipitation, MM = Missing Value Source: NWS Daily Summary

Daily Weather History Graph

Daily Weather History Graph

Search for Another Location

Airport or City:

Trip Planner

Search our weather history database for the weather conditions in past years. The results will help you decide how hot, cold, wet, or windy it might be!

Date:

Astronomy

Jul. 02, 2012 Rise Set
Actual Time 5:43 AM CDT 9:20 PM CDT
Civil Twilight 5:05 AM CDT 9:58 PM CDT
Nautical Twilight 4:15 AM CDT 10:48 PM CDT
Astronomical Twilight 3:07 AM CDT 11:55 PM CDT
Moon 8:22 PM CDT (7/2) 4:32 AM CDT (7/2)
Length of Visible Light 16h 52m
Length of Day
15h 37m
Waxing Gibbous, 98% of the Moon is Illuminated
Jul 2
Waxing Gibbous
Jul 3
Full
Jul 10
Last Quarter
Jul 18
New
Jul 26
First Quarter

Hourly Weather History & Observations

Time (CDT) Temp. Heat Index Dew Point Humidity Pressure Visibility Wind Dir Wind Speed Gust Speed Precip Events Conditions
12:56 AM 73.0 °F - 68.0 °F 84% 29.73 in - SSW 3.5 mph - N/A   Unknown
1:56 AM 72.0 °F - 68.0 °F 87% 29.72 in - SE 9.2 mph - N/A   Unknown
2:56 AM 73.0 °F - 68.0 °F 84% 29.70 in - SSE 9.2 mph - N/A   Unknown
3:56 AM 71.1 °F - 68.0 °F 90% 29.70 in - South 5.8 mph - N/A   Unknown
4:56 AM 70.0 °F - 68.0 °F 93% 29.69 in - South 5.8 mph - N/A   Unknown
5:56 AM 70.0 °F - 68.0 °F 93% 29.69 in - South 8.1 mph - N/A   Unknown
6:56 AM 71.1 °F - 69.1 °F 93% 29.68 in - SSE 3.5 mph - N/A   Unknown
7:56 AM 75.0 °F - 71.1 °F 87% 29.68 in - SSE 5.8 mph - N/A   Unknown
8:56 AM 79.0 °F - 72.0 °F 79% 29.69 in - South 9.2 mph - N/A   Unknown
9:56 AM 82.9 °F 88.8 °F 73.0 °F 72% 29.67 in - SSE 10.4 mph - N/A   Unknown
10:56 AM 86.0 °F 95.1 °F 75.0 °F 70% 29.66 in - South 11.5 mph - N/A   Unknown
11:56 AM 90.0 °F 100.2 °F 75.0 °F 61% 29.65 in - South 15.0 mph - N/A   Unknown
12:56 PM 93.9 °F 100.8 °F 71.1 °F 47% 29.64 in - South 16.1 mph - N/A   Unknown
1:56 PM 97.0 °F 102.2 °F 68.0 °F 39% 29.64 in - SSW 16.1 mph 23.0 mph N/A   Unknown
2:56 PM 98.1 °F 102.4 °F 66.9 °F 36% 29.62 in - SW 20.7 mph 26.5 mph N/A   Unknown
3:56 PM 96.1 °F 101.6 °F 69.1 °F 41% 29.62 in - WSW 15.0 mph 26.5 mph N/A   Unknown
4:56 PM 91.9 °F 98.4 °F 71.1 °F 50% 29.63 in - SW 10.4 mph - N/A   Unknown
5:56 PM 91.9 °F 99.5 °F 72.0 °F 52% 29.63 in - West 3.5 mph - N/A   Unknown
6:56 PM 91.9 °F 101.3 °F 73.9 °F 55% 29.61 in - Calm Calm - N/A   Unknown
7:56 PM 90.0 °F 104.5 °F 78.1 °F 68% 29.58 in - Calm Calm - N/A   Unknown
8:56 PM 86.0 °F 96.0 °F 75.9 °F 72% 29.58 in - ESE 6.9 mph - N/A   Unknown
9:56 PM 82.9 °F 90.2 °F 75.0 °F 77% 29.59 in - WSW 4.6 mph - N/A   Unknown
10:56 PM 82.0 °F 85.5 °F 69.1 °F 65% 29.60 in - SSW 9.2 mph - N/A   Unknown
11:56 PM 80.1 °F 82.9 °F 69.1 °F 69% 29.62 in - Variable 3.5 mph - N/A   Unknown